Time,TemperatureF,DewpointF,PressureIn,WindDirection,WindDirectionDegrees,WindSpeedMPH,WindSpeedGustMPH,Humidity,HourlyPrecipIn,Conditions,Clouds,dailyrainin,SoftwareType,DateUTC
2013-02-25 00:02:00,27.5,25.0,30.09,South,183,0.0,0.0,90,0.00,,---,0.00,VWS V14.00,2013-02-25 06:02:00,
2013-02-25 00:07:00,27.5,25.0,30.09,South,183,0.0,0.0,90,0.00,,---,0.00,VWS V14.00,2013-02-25 06:07:00,
2013-02-25 00:12:00,27.5,25.0,30.09,South,183,0.0,0.0,90,0.00,,---,0.00,VWS V14.00,2013-02-25 06:12:00,
2013-02-25 00:17:00,27.3,24.8,30.09,South,183,0.0,0.0,90,0.00,,---,0.00,VWS V14.00,2013-02-25 06:17:00,
2013-02-25 00:22:00,27.3,24.8,30.09,South,183,0.0,0.0,90,0.00,,---,0.00,VWS V14.00,2013-02-25 06:22:00,
2013-02-25 00:27:00,27.3,24.8,30.09,South,183,0.0,0.0,90,0.00,,---,0.00,VWS V14.00,2013-02-25 06:27:00,
2013-02-25 00:33:00,27.2,24.7,30.10,South,183,0.0,0.0,90,0.00,,---,0.00,VWS V14.00,2013-02-25 06:33:00,
2013-02-25 00:38:00,27.2,24.7,30.10,South,183,0.0,0.0,90,0.00,,---,0.00,VWS V14.00,2013-02-25 06:38:00,
2013-02-25 00:43:00,27.0,24.5,30.10,South,183,0.0,0.0,90,0.00,,---,0.00,VWS V14.00,2013-02-25 06:43:00,
2013-02-25 00:48:00,26.9,24.4,30.09,South,183,0.0,0.0,90,0.00,,---,0.00,VWS V14.00,2013-02-25 06:48:00,
2013-02-25 00:53:00,26.9,24.4,30.09,South,183,0.0,0.0,90,0.00,,---,0.00,VWS V14.00,2013-02-25 06:53:00,
2013-02-25 00:58:00,26.7,24.2,30.09,South,183,0.0,0.0,90,0.00,,---,0.00,VWS V14.00,2013-02-25 06:58:00,
2013-02-25 01:03:00,26.6,24.1,30.09,South,183,0.0,0.0,90,0.00,,---,0.00,VWS V14.00,2013-02-25 07:03:00,
2013-02-25 01:08:00,26.6,24.1,30.09,South,183,0.0,0.0,90,0.00,,---,0.00,VWS V14.00,2013-02-25 07:08:00,
2013-02-25 01:13:00,26.7,24.2,30.09,South,183,0.0,0.0,90,0.00,,---,0.00,VWS V14.00,2013-02-25 07:13:00,
2013-02-25 01:18:00,26.7,24.2,30.09,South,183,0.0,0.0,90,0.00,,---,0.00,VWS V14.00,2013-02-25 07:18:00,
2013-02-25 01:24:00,26.7,24.2,30.09,South,183,0.0,0.0,90,0.00,,---,0.00,VWS V14.00,2013-02-25 07:24:00,
2013-02-25 01:29:00,26.6,24.1,30.09,South,183,0.0,0.0,90,0.00,,---,0.00,VWS V14.00,2013-02-25 07:29:00,
2013-02-25 01:34:00,26.6,24.1,30.09,South,183,0.0,0.0,90,0.00,,---,0.00,VWS V14.00,2013-02-25 07:34:00,
2013-02-25 01:39:00,26.4,23.9,30.09,South,183,0.0,0.0,90,0.00,,---,0.00,VWS V14.00,2013-02-25 07:39:00,
2013-02-25 01:44:00,26.4,23.9,30.09,South,183,0.0,0.0,90,0.00,,---,0.00,VWS V14.00,2013-02-25 07:44:00,
2013-02-25 01:49:00,26.4,23.9,30.09,South,183,0.0,0.0,90,0.00,,---,0.00,VWS V14.00,2013-02-25 07:49:00,
2013-02-25 01:54:00,26.4,23.9,30.09,South,183,0.0,0.0,90,0.00,,---,0.00,VWS V14.00,2013-02-25 07:54:00,
2013-02-25 01:59:00,26.4,23.9,30.09,South,183,0.0,0.0,90,0.00,,---,0.00,VWS V14.00,2013-02-25 07:59:00,
2013-02-25 02:04:00,26.4,23.9,30.09,South,183,0.0,0.0,90,0.00,,---,0.00,VWS V14.00,2013-02-25 08:04:00,
2013-02-25 02:09:00,26.4,23.9,30.09,South,183,0.0,0.0,90,0.00,,---,0.00,VWS V14.00,2013-02-25 08:09:00,
2013-02-25 02:15:00,26.4,23.9,30.09,South,183,0.0,0.0,90,0.00,,---,0.00,VWS V14.00,2013-02-25 08:15:00,
2013-02-25 02:20:00,26.4,23.9,30.09,South,183,0.0,0.0,90,0.00,,---,0.00,VWS V14.00,2013-02-25 08:20:00,
2013-02-25 02:25:00,26.4,23.9,30.09,South,183,0.0,0.0,90,0.00,,---,0.00,VWS V14.00,2013-02-25 08:25:00,
2013-02-25 02:30:00,26.4,23.9,30.09,South,183,0.0,0.0,90,0.00,,---,0.00,VWS V14.00,2013-02-25 08:30:00,
2013-02-25 02:35:00,26.4,23.9,30.09,South,183,0.0,0.0,90,0.00,,---,0.00,VWS V14.00,2013-02-25 08:35:00,
2013-02-25 02:40:00,26.4,23.9,30.09,South,183,0.0,0.0,90,0.00,,---,0.00,VWS V14.00,2013-02-25 08:40:00,
2013-02-25 02:45:00,26.4,23.9,30.09,South,183,0.0,0.0,90,0.00,,---,0.00,VWS V14.00,2013-02-25 08:45:00,
2013-02-25 02:50:00,26.3,23.8,30.09,South,183,0.0,0.0,90,0.00,,---,0.00,VWS V14.00,2013-02-25 08:50:00,
2013-02-25 02:55:00,26.3,23.8,30.09,South,183,0.0,0.0,90,0.00,,---,0.00,VWS V14.00,2013-02-25 08:55:00,
2013-02-25 03:00:00,26.3,24.0,30.09,South,183,0.0,0.0,91,0.00,,---,0.00,VWS V14.00,2013-02-25 09:00:00,
2013-02-25 03:05:00,26.3,24.0,30.09,South,183,0.0,0.0,91,0.00,,---,0.00,VWS V14.00,2013-02-25 09:05:00,
2013-02-25 03:10:00,26.4,24.1,30.09,South,183,0.0,0.0,91,0.00,,---,0.00,VWS V14.00,2013-02-25 09:10:00,
2013-02-25 03:15:00,26.4,24.1,30.08,South,183,0.0,0.0,91,0.00,,---,0.00,VWS V14.00,2013-02-25 09:15:00,
2013-02-25 03:21:00,26.3,24.0,30.08,South,183,0.0,0.0,91,0.00,,---,0.00,VWS V14.00,2013-02-25 09:21:00,
2013-02-25 03:26:00,26.3,24.0,30.08,South,183,0.0,0.0,91,0.00,,---,0.00,VWS V14.00,2013-02-25 09:26:00,
2013-02-25 03:31:00,26.3,24.0,30.09,South,183,0.0,0.0,91,0.00,,---,0.00,VWS V14.00,2013-02-25 09:31:00,
2013-02-25 03:36:00,26.1,23.8,30.09,South,183,1.0,2.0,91,0.00,,---,0.00,VWS V14.00,2013-02-25 09:36:00,
2013-02-25 03:41:00,26.0,23.7,30.09,South,183,0.0,0.0,91,0.00,,---,0.00,VWS V14.00,2013-02-25 09:41:00,
2013-02-25 03:46:00,26.0,23.7,30.09,South,183,0.0,0.0,91,0.00,,---,0.00,VWS V14.00,2013-02-25 09:46:00,
2013-02-25 03:51:00,25.8,23.5,30.09,South,183,0.0,0.0,91,0.00,,---,0.00,VWS V14.00,2013-02-25 09:51:00,
2013-02-25 03:56:00,25.8,23.5,30.09,South,183,1.0,1.0,91,0.00,,---,0.00,VWS V14.00,2013-02-25 09:56:00,
2013-02-25 04:01:00,25.8,23.5,30.08,South,183,0.0,1.0,91,0.00,,---,0.00,VWS V14.00,2013-02-25 10:01:00,
2013-02-25 04:06:00,25.8,23.5,30.08,South,183,0.0,0.0,91,0.00,,---,0.00,VWS V14.00,2013-02-25 10:06:00,
2013-02-25 04:11:00,25.7,23.4,30.08,South,183,0.0,0.0,91,0.00,,---,0.00,VWS V14.00,2013-02-25 10:11:00,
2013-02-25 04:16:00,25.7,23.4,30.08,South,183,0.0,0.0,91,0.00,,---,0.00,VWS V14.00,2013-02-25 10:16:00,
2013-02-25 04:21:00,25.7,23.4,30.08,South,183,0.0,1.0,91,0.00,,---,0.00,VWS V14.00,2013-02-25 10:21:00,
2013-02-25 04:26:00,25.7,23.4,30.08,South,183,0.0,0.0,91,0.00,,---,0.00,VWS V14.00,2013-02-25 10:26:00,
2013-02-25 04:32:00,25.7,23.4,30.09,South,183,0.0,0.0,91,0.00,,---,0.00,VWS V14.00,2013-02-25 10:32:00,
2013-02-25 04:37:00,25.8,23.5,30.09,South,183,1.0,2.0,91,0.00,,---,0.00,VWS V14.00,2013-02-25 10:37:00,
2013-02-25 04:42:00,25.8,23.8,30.09,South,183,0.0,1.0,92,0.00,,---,0.00,VWS V14.00,2013-02-25 10:42:00,
2013-02-25 04:47:00,25.8,23.8,30.09,South,183,0.0,0.0,92,0.00,,---,0.00,VWS V14.00,2013-02-25 10:47:00,
2013-02-25 04:52:00,26.0,24.0,30.09,South,183,0.0,0.0,92,0.00,,---,0.00,VWS V14.00,2013-02-25 10:52:00,
2013-02-25 04:57:00,26.0,24.0,30.09,South,183,0.0,0.0,92,0.00,,---,0.00,VWS V14.00,2013-02-25 10:57:00,
2013-02-25 05:02:00,26.0,24.0,30.09,South,183,0.0,0.0,92,0.00,,---,0.00,VWS V14.00,2013-02-25 11:02:00,
2013-02-25 05:08:00,26.0,24.0,30.09,South,183,0.0,0.0,92,0.00,,---,0.00,VWS V14.00,2013-02-25 11:08:00,
2013-02-25 05:13:00,26.1,24.1,30.09,South,183,0.0,0.0,92,0.00,,---,0.00,VWS V14.00,2013-02-25 11:13:00,
2013-02-25 05:18:00,26.1,24.1,30.10,South,183,0.0,0.0,92,0.00,,---,0.00,VWS V14.00,2013-02-25 11:18:00,
2013-02-25 05:23:00,26.0,24.0,30.10,South,183,0.0,0.0,92,0.00,,---,0.00,VWS V14.00,2013-02-25 11:23:00,
2013-02-25 05:28:00,26.0,24.0,30.10,South,183,0.0,0.0,92,0.00,,---,0.00,VWS V14.00,2013-02-25 11:28:00,
2013-02-25 05:33:00,25.8,23.8,30.11,South,183,0.0,0.0,92,0.00,,---,0.00,VWS V14.00,2013-02-25 11:33:00,
2013-02-25 05:38:00,25.8,23.8,30.11,South,183,0.0,0.0,92,0.00,,---,0.00,VWS V14.00,2013-02-25 11:38:00,
2013-02-25 05:43:00,25.8,23.8,30.11,South,183,0.0,0.0,92,0.00,,---,0.00,VWS V14.00,2013-02-25 11:43:00,
2013-02-25 05:48:00,25.8,23.8,30.11,South,183,0.0,0.0,92,0.00,,---,0.00,VWS V14.00,2013-02-25 11:48:00,
2013-02-25 05:53:00,25.8,23.8,30.11,South,183,0.0,0.0,92,0.00,,---,0.00,VWS V14.00,2013-02-25 11:53:00,
2013-02-25 05:58:00,25.8,23.8,30.11,South,183,0.0,0.0,92,0.00,,---,0.00,VWS V14.00,2013-02-25 11:58:00,
2013-02-25 06:04:00,25.8,23.8,30.10,South,183,0.0,0.0,92,0.00,,---,0.00,VWS V14.00,2013-02-25 12:04:00,
2013-02-25 06:09:00,25.8,23.8,30.10,South,183,0.0,0.0,92,0.00,,---,0.00,VWS V14.00,2013-02-25 12:09:00,
2013-02-25 06:14:00,25.7,23.7,30.10,South,183,0.0,0.0,92,0.00,,---,0.00,VWS V14.00,2013-02-25 12:14:00,
2013-02-25 06:19:00,25.7,23.7,30.10,South,183,0.0,0.0,92,0.00,,---,0.00,VWS V14.00,2013-02-25 12:19:00,
2013-02-25 06:24:00,25.7,23.7,30.10,South,183,0.0,1.0,92,0.00,,---,0.00,VWS V14.00,2013-02-25 12:24:00,
2013-02-25 06:29:00,25.7,23.7,30.10,South,183,0.0,1.0,92,0.00,,---,0.00,VWS V14.00,2013-02-25 12:29:00,
2013-02-25 06:34:00,25.6,23.6,30.10,South,183,0.0,0.0,92,0.00,,---,0.00,VWS V14.00,2013-02-25 12:34:00,
2013-02-25 06:39:00,25.6,23.6,30.10,South,183,0.0,0.0,92,0.00,,---,0.00,VWS V14.00,2013-02-25 12:39:00,
2013-02-25 06:44:00,25.7,23.7,30.09,South,183,0.0,0.0,92,0.00,,---,0.00,VWS V14.00,2013-02-25 12:44:00,
2013-02-25 06:50:00,25.7,23.7,30.09,South,183,0.0,1.0,92,0.00,,---,0.00,VWS V14.00,2013-02-25 12:50:00,
2013-02-25 06:55:00,26.0,24.0,30.09,South,183,0.0,1.0,92,0.00,,---,0.00,VWS V14.00,2013-02-25 12:55:00,
2013-02-25 07:00:00,26.3,24.3,30.09,South,183,0.0,1.0,92,0.00,,---,0.00,VWS V14.00,2013-02-25 13:00:00,
2013-02-25 07:05:00,26.7,24.7,30.09,South,183,0.0,0.0,92,0.00,,---,0.00,VWS V14.00,2013-02-25 13:05:00,
2013-02-25 07:10:00,27.0,25.0,30.09,South,183,0.0,0.0,92,0.00,,---,0.00,VWS V14.00,2013-02-25 13:10:00,
2013-02-25 07:15:00,27.5,25.5,30.08,South,183,0.0,0.0,92,0.00,,---,0.00,VWS V14.00,2013-02-25 13:15:00,
2013-02-25 07:21:00,27.8,25.8,30.08,South,183,0.0,0.0,92,0.00,,---,0.00,VWS V14.00,2013-02-25 13:21:00,
2013-02-25 07:26:00,28.4,26.4,30.08,South,183,0.0,1.0,92,0.00,,---,0.00,VWS V14.00,2013-02-25 13:26:00,
2013-02-25 07:31:00,29.0,27.0,30.08,South,183,0.0,1.0,92,0.00,,---,0.00,VWS V14.00,2013-02-25 13:31:00,
2013-02-25 07:36:00,29.3,27.0,30.08,South,183,0.0,0.0,91,0.00,,---,0.00,VWS V14.00,2013-02-25 13:36:00,
2013-02-25 07:41:00,29.7,27.4,30.08,South,183,0.0,2.0,91,0.00,,---,0.00,VWS V14.00,2013-02-25 13:41:00,
2013-02-25 07:47:00,30.1,27.8,30.07,South,183,0.0,2.0,91,0.00,,---,0.00,VWS V14.00,2013-02-25 13:47:00,
2013-02-25 07:52:00,30.7,28.1,30.07,South,183,0.0,0.0,90,0.01,,---,0.01,VWS V14.00,2013-02-25 13:52:00,
2013-02-25 07:57:00,31.2,28.3,30.07,South,183,0.0,1.0,89,0.01,,---,0.01,VWS V14.00,2013-02-25 13:57:00,
2013-02-25 08:02:00,31.6,28.7,30.08,South,183,0.0,1.0,89,0.01,,---,0.01,VWS V14.00,2013-02-25 14:02:00,
2013-02-25 08:07:00,32.1,29.0,30.08,South,183,2.0,2.0,88,0.01,,---,0.01,VWS V14.00,2013-02-25 14:07:00,
2013-02-25 08:13:00,32.1,29.0,30.08,South,183,2.0,2.0,88,0.01,,---,0.01,VWS V14.00,2013-02-25 14:13:00,
2013-02-25 08:18:00,32.1,29.0,30.08,South,183,2.0,2.0,88,0.01,,---,0.01,VWS V14.00,2013-02-25 14:18:00,
2013-02-25 08:23:00,32.1,29.0,30.08,South,183,2.0,2.0,88,0.01,,---,0.01,VWS V14.00,2013-02-25 14:23:00,
2013-02-25 08:28:00,32.1,29.0,30.08,South,183,2.0,2.0,88,0.01,,---,0.01,VWS V14.00,2013-02-25 14:28:00,
2013-02-25 08:33:00,32.1,29.0,30.09,South,183,2.0,2.0,88,0.01,,---,0.01,VWS V14.00,2013-02-25 14:33:00,
2013-02-25 08:38:00,32.1,29.0,30.09,South,183,2.0,2.0,88,0.01,,---,0.01,VWS V14.00,2013-02-25 14:38:00,
2013-02-25 08:43:00,32.1,29.0,30.09,South,183,2.0,2.0,88,0.01,,---,0.01,VWS V14.00,2013-02-25 14:43:00,
2013-02-25 08:48:00,32.1,29.0,30.08,South,183,2.0,2.0,88,0.01,,---,0.01,VWS V14.00,2013-02-25 14:48:00,
2013-02-25 08:53:00,32.5,28.8,30.08,ESE,111,3.0,3.0,86,0.01,,---,0.01,VWS V14.00,2013-02-25 14:53:00,
2013-02-25 08:58:00,32.7,29.0,30.08,ESE,111,4.0,4.0,86,0.01,,---,0.01,VWS V14.00,2013-02-25 14:58:00,
2013-02-25 09:03:00,33.4,29.7,30.08,ESE,111,3.0,9.0,86,0.00,,---,0.01,VWS V14.00,2013-02-25 15:03:00,
2013-02-25 09:08:00,33.5,29.5,30.08,ESE,111,3.0,3.0,85,0.00,,---,0.01,VWS V14.00,2013-02-25 15:08:00,
2013-02-25 09:13:00,34.1,30.1,30.08,ESE,111,3.0,6.0,85,0.00,,---,0.01,VWS V14.00,2013-02-25 15:13:00,
2013-02-25 09:18:00,34.6,30.6,30.06,ESE,110,9.0,9.0,85,0.00,,---,0.01,VWS V14.00,2013-02-25 15:18:00,
2013-02-25 09:24:00,34.7,30.4,30.06,ESE,108,4.0,5.0,84,0.00,,---,0.01,VWS V14.00,2013-02-25 15:24:00,
2013-02-25 09:29:00,35.0,30.4,30.06,ESE,108,3.0,3.0,83,0.00,,---,0.01,VWS V14.00,2013-02-25 15:29:00,
2013-02-25 09:34:00,35.2,30.6,30.07,ESE,108,4.0,4.0,83,0.00,,---,0.01,VWS V14.00,2013-02-25 15:34:00,
2013-02-25 09:39:00,35.9,30.6,30.07,ESE,107,4.0,5.0,81,0.00,,---,0.01,VWS V14.00,2013-02-25 15:39:00,
2013-02-25 09:44:00,36.2,30.9,30.06,ESE,106,3.0,4.0,81,0.00,,---,0.01,VWS V14.00,2013-02-25 15:44:00,
2013-02-25 09:49:00,37.0,31.7,30.06,ESE,106,3.0,6.0,81,0.00,,---,0.01,VWS V14.00,2013-02-25 15:49:00,
2013-02-25 09:54:00,36.6,30.7,30.06,ESE,104,4.0,5.0,79,0.00,,---,0.01,VWS V14.00,2013-02-25 15:54:00,
2013-02-25 09:59:00,36.9,31.3,30.06,ESE,103,3.0,5.0,80,0.00,,---,0.01,VWS V14.00,2013-02-25 15:59:00,
2013-02-25 10:04:00,37.0,30.8,30.06,ESE,103,4.0,11.0,78,0.00,,---,0.01,VWS V14.00,2013-02-25 16:04:00,
2013-02-25 10:09:00,37.8,31.9,30.06,ESE,103,3.0,5.0,79,0.00,,---,0.01,VWS V14.00,2013-02-25 16:09:00,
2013-02-25 10:14:00,38.2,32.0,30.06,ESE,107,12.0,17.0,78,0.00,,---,0.01,VWS V14.00,2013-02-25 16:14:00,
2013-02-25 10:19:00,37.8,30.9,30.06,ESE,105,7.0,7.0,76,0.00,,---,0.01,VWS V14.00,2013-02-25 16:19:00,
2013-02-25 10:24:00,37.8,30.9,30.06,ESE,105,7.0,7.0,76,0.00,,---,0.01,VWS V14.00,2013-02-25 16:24:00,
2013-02-25 10:29:00,37.2,30.4,30.07,ESE,103,10.0,13.0,76,0.00,,---,0.01,VWS V14.00,2013-02-25 16:29:00,
2013-02-25 10:34:00,37.2,30.4,30.07,ESE,104,10.0,13.0,76,0.00,,---,0.01,VWS V14.00,2013-02-25 16:34:00,
2013-02-25 10:39:00,37.3,31.1,30.07,ESE,106,9.0,10.0,78,0.00,,---,0.01,VWS V14.00,2013-02-25 16:39:00,
2013-02-25 10:45:00,37.6,31.1,30.08,ESE,103,9.0,12.0,77,0.00,,---,0.01,VWS V14.00,2013-02-25 16:45:00,
2013-02-25 10:50:00,37.5,30.6,30.08,ESE,103,3.0,14.0,76,0.00,,---,0.01,VWS V14.00,2013-02-25 16:50:00,
2013-02-25 10:55:00,37.8,31.2,30.08,ESE,113,14.0,16.0,77,0.00,,---,0.01,VWS V14.00,2013-02-25 16:55:00,
2013-02-25 11:00:00,37.8,30.9,30.08,East,101,12.0,16.0,76,0.00,,---,0.01,VWS V14.00,2013-02-25 17:00:00,
2013-02-25 11:05:00,37.9,31.0,30.08,ESE,102,14.0,14.0,76,0.00,,---,0.01,VWS V14.00,2013-02-25 17:05:00,
2013-02-25 11:10:00,38.6,32.0,30.08,ESE,107,5.0,13.0,77,0.00,,---,0.01,VWS V14.00,2013-02-25 17:10:00,
2013-02-25 11:15:00,39.5,32.6,30.07,ESE,102,6.0,12.0,76,0.00,,---,0.01,VWS V14.00,2013-02-25 17:15:00,
2013-02-25 11:20:00,39.9,33.0,30.07,East,100,3.0,6.0,76,0.00,,---,0.01,VWS V14.00,2013-02-25 17:20:00,
2013-02-25 11:25:00,40.2,32.6,30.07,East,99,7.0,8.0,74,0.00,,---,0.01,VWS V14.00,2013-02-25 17:25:00,
2013-02-25 11:30:00,40.3,32.7,30.07,ESE,109,12.0,14.0,74,0.00,,---,0.01,VWS V14.00,2013-02-25 17:30:00,
2013-02-25 11:35:00,40.2,32.9,30.07,ESE,104,1.0,6.0,75,0.00,,---,0.01,VWS V14.00,2013-02-25 17:35:00,
2013-02-25 11:40:00,40.9,33.3,30.07,ESE,103,0.0,1.0,74,0.00,,---,0.01,VWS V14.00,2013-02-25 17:40:00,
2013-02-25 11:45:00,41.6,33.6,30.06,ESE,103,1.0,1.0,73,0.00,,---,0.01,VWS V14.00,2013-02-25 17:45:00,
2013-02-25 11:50:00,41.9,32.8,30.06,ESE,103,0.0,1.0,70,0.00,,---,0.01,VWS V14.00,2013-02-25 17:50:00,
2013-02-25 11:56:00,41.9,32.1,30.06,ESE,103,5.0,8.0,68,0.00,,---,0.01,VWS V14.00,2013-02-25 17:56:00,
2013-02-25 12:01:00,42.1,32.7,30.06,ESE,103,2.0,2.0,69,0.00,,---,0.01,VWS V14.00,2013-02-25 18:01:00,
2013-02-25 12:06:00,42.5,33.8,30.06,ESE,103,5.0,6.0,71,0.00,,---,0.01,VWS V14.00,2013-02-25 18:06:00,
2013-02-25 12:11:00,41.5,32.5,30.06,ESE,103,0.0,1.0,70,0.00,,---,0.01,VWS V14.00,2013-02-25 18:11:00,
2013-02-25 12:16:00,41.9,32.8,30.05,ESE,103,0.0,1.0,70,0.00,,---,0.01,VWS V14.00,2013-02-25 18:16:00,
2013-02-25 12:21:00,42.6,33.2,30.05,ESE,103,0.0,2.0,69,0.00,,---,0.01,VWS V14.00,2013-02-25 18:21:00,
2013-02-25 12:26:00,43.1,33.6,30.05,East,101,3.0,5.0,69,0.00,,---,0.01,VWS V14.00,2013-02-25 18:26:00,
2013-02-25 12:31:00,43.1,32.9,30.04,East,94,5.0,6.0,67,0.00,,---,0.01,VWS V14.00,2013-02-25 18:31:00,
2013-02-25 12:36:00,42.9,32.7,30.04,East,92,0.0,4.0,67,0.00,,---,0.01,VWS V14.00,2013-02-25 18:36:00,
2013-02-25 12:41:00,43.1,32.9,30.04,East,92,0.0,4.0,67,0.00,,---,0.01,VWS V14.00,2013-02-25 18:41:00,
2013-02-25 12:46:00,43.2,33.0,30.02,East,91,0.0,4.0,67,0.00,,---,0.01,VWS V14.00,2013-02-25 18:46:00,
2013-02-25 12:51:00,43.3,32.7,30.02,East,91,0.0,3.0,66,0.00,,---,0.01,VWS V14.00,2013-02-25 18:51:00,
2013-02-25 12:56:00,43.2,32.6,30.02,East,90,1.0,3.0,66,0.00,,---,0.01,VWS V14.00,2013-02-25 18:56:00,
2013-02-25 13:02:00,43.2,32.6,30.01,East,87,0.0,1.0,66,0.00,,---,0.01,VWS V14.00,2013-02-25 19:02:00,
2013-02-25 13:07:00,43.1,32.2,30.01,East,87,1.0,1.0,65,0.00,,---,0.01,VWS V14.00,2013-02-25 19:07:00,
2013-02-25 13:12:00,42.9,32.0,30.01,East,86,1.0,4.0,65,0.00,,---,0.01,VWS V14.00,2013-02-25 19:12:00,
2013-02-25 13:17:00,42.5,32.0,30.02,East,84,0.0,1.0,66,0.00,,---,0.01,VWS V14.00,2013-02-25 19:17:00,
2013-02-25 13:22:00,42.9,33.4,30.02,East,84,0.0,3.0,69,0.00,,---,0.01,VWS V14.00,2013-02-25 19:22:00,
2013-02-25 13:27:00,43.2,33.7,30.02,East,84,0.0,0.0,69,0.00,,---,0.01,VWS V14.00,2013-02-25 19:27:00,
2013-02-25 13:32:00,43.8,33.6,30.02,East,84,6.0,7.0,67,0.00,,---,0.01,VWS V14.00,2013-02-25 19:32:00,
2013-02-25 13:37:00,44.2,34.0,30.02,East,84,2.0,2.0,67,0.00,,---,0.01,VWS V14.00,2013-02-25 19:37:00,
2013-02-25 13:42:00,44.5,34.2,30.02,East,84,0.0,2.0,67,0.00,,---,0.01,VWS V14.00,2013-02-25 19:42:00,
2013-02-25 13:47:00,44.6,34.0,30.02,East,83,1.0,2.0,66,0.00,,---,0.01,VWS V14.00,2013-02-25 19:47:00,
2013-02-25 13:52:00,44.6,33.2,30.02,East,83,1.0,2.0,64,0.00,,---,0.01,VWS V14.00,2013-02-25 19:52:00,
2013-02-25 13:57:00,44.6,33.2,30.02,East,83,2.0,2.0,64,0.00,,---,0.01,VWS V14.00,2013-02-25 19:57:00,
2013-02-25 14:02:00,44.8,33.4,30.01,East,83,1.0,2.0,64,0.00,,---,0.01,VWS V14.00,2013-02-25 20:02:00,
2013-02-25 14:07:00,44.6,32.8,30.01,East,83,1.0,2.0,63,0.00,,---,0.01,VWS V14.00,2013-02-25 20:07:00,
2013-02-25 14:12:00,44.5,33.5,30.01,East,83,5.0,5.0,65,0.00,,---,0.01,VWS V14.00,2013-02-25 20:12:00,
2013-02-25 14:17:00,44.1,33.1,29.99,East,81,4.0,4.0,65,0.00,,---,0.01,VWS V14.00,2013-02-25 20:17:00,
2013-02-25 14:22:00,43.8,33.2,29.99,East,81,1.0,5.0,66,0.00,,---,0.01,VWS V14.00,2013-02-25 20:22:00,
2013-02-25 14:28:00,43.5,33.3,29.99,East,81,5.0,5.0,67,0.00,,---,0.01,VWS V14.00,2013-02-25 20:28:00,
2013-02-25 14:33:00,43.1,32.9,30.00,East,80,1.0,3.0,67,0.00,,---,0.01,VWS V14.00,2013-02-25 20:33:00,
2013-02-25 14:38:00,42.6,32.4,30.00,East,80,1.0,1.0,67,0.00,,---,0.01,VWS V14.00,2013-02-25 20:38:00,
2013-02-25 14:43:00,42.5,32.7,30.00,East,80,1.0,3.0,68,0.00,,---,0.01,VWS V14.00,2013-02-25 20:43:00,
2013-02-25 14:48:00,42.3,32.9,29.99,East,79,5.0,5.0,69,0.00,,---,0.01,VWS V14.00,2013-02-25 20:48:00,
2013-02-25 14:53:00,42.2,32.8,29.99,ENE,78,1.0,3.0,69,0.00,,---,0.01,VWS V14.00,2013-02-25 20:53:00,
2013-02-25 14:58:00,42.1,32.7,29.99,ENE,77,1.0,5.0,69,0.00,,---,0.01,VWS V14.00,2013-02-25 20:58:00,
2013-02-25 15:03:00,41.9,33.2,29.98,ENE,76,2.0,7.0,71,0.00,,---,0.01,VWS V14.00,2013-02-25 21:03:00,
2013-02-25 15:08:00,41.8,33.1,29.98,ENE,76,3.0,3.0,71,0.00,,---,0.01,VWS V14.00,2013-02-25 21:08:00,
2013-02-25 15:13:00,41.6,32.9,29.98,ENE,75,3.0,5.0,71,0.00,,---,0.01,VWS V14.00,2013-02-25 21:13:00,
2013-02-25 15:18:00,41.6,34.3,29.96,ENE,75,0.0,4.0,75,0.00,,---,0.01,VWS V14.00,2013-02-25 21:18:00,
2013-02-25 15:23:00,41.6,33.6,29.96,ENE,74,4.0,6.0,73,0.00,,---,0.01,VWS V14.00,2013-02-25 21:23:00,
2013-02-25 15:28:00,41.5,33.5,29.96,ENE,73,2.0,5.0,73,0.00,,---,0.01,VWS V14.00,2013-02-25 21:28:00,
2013-02-25 15:33:00,41.3,33.3,29.95,ENE,70,6.0,7.0,73,0.00,,---,0.01,VWS V14.00,2013-02-25 21:33:00,
2013-02-25 15:38:00,41.2,33.2,29.95,ENE,68,5.0,6.0,73,0.00,,---,0.01,VWS V14.00,2013-02-25 21:38:00,
2013-02-25 15:44:00,41.1,33.5,29.95,ENE,67,4.0,4.0,74,0.00,,---,0.01,VWS V14.00,2013-02-25 21:44:00,
2013-02-25 15:49:00,40.9,32.9,29.95,ENE,66,3.0,5.0,73,0.00,,---,0.01,VWS V14.00,2013-02-25 21:49:00,
2013-02-25 15:54:00,40.6,33.0,29.95,ENE,65,3.0,6.0,74,0.00,,---,0.01,VWS V14.00,2013-02-25 21:54:00,
2013-02-25 15:59:00,40.5,32.9,29.95,ENE,65,6.0,6.0,74,0.00,,---,0.01,VWS V14.00,2013-02-25 21:59:00,
2013-02-25 16:04:00,40.2,32.6,29.95,ENE,65,3.0,6.0,74,0.00,,---,0.01,VWS V14.00,2013-02-25 22:04:00,
2013-02-25 16:09:00,40.1,33.2,29.95,ENE,65,3.0,5.0,76,0.00,,---,0.01,VWS V14.00,2013-02-25 22:09:00,
2013-02-25 16:14:00,39.9,33.3,29.94,ENE,65,4.0,6.0,77,0.00,,---,0.01,VWS V14.00,2013-02-25 22:14:00,
2013-02-25 16:19:00,39.8,33.2,29.94,ENE,65,4.0,6.0,77,0.00,,---,0.01,VWS V14.00,2013-02-25 22:19:00,
2013-02-25 16:24:00,39.6,33.0,29.94,ENE,65,4.0,5.0,77,0.00,,---,0.01,VWS V14.00,2013-02-25 22:24:00,
2013-02-25 16:29:00,39.6,33.0,29.94,ENE,65,6.0,6.0,77,0.00,,---,0.01,VWS V14.00,2013-02-25 22:29:00,
2013-02-25 16:34:00,39.5,32.9,29.94,ENE,65,5.0,6.0,77,0.00,,---,0.01,VWS V14.00,2013-02-25 22:34:00,
2013-02-25 16:39:00,39.3,32.7,29.94,ENE,65,6.0,6.0,77,0.00,,---,0.01,VWS V14.00,2013-02-25 22:39:00,
2013-02-25 16:44:00,39.2,32.6,29.93,ENE,63,4.0,5.0,77,0.00,,---,0.01,VWS V14.00,2013-02-25 22:44:00,
2013-02-25 16:49:00,39.1,32.8,29.93,ENE,63,3.0,6.0,78,0.00,,---,0.01,VWS V14.00,2013-02-25 22:49:00,
2013-02-25 16:54:00,38.8,32.5,29.93,ENE,63,3.0,5.0,78,0.00,,---,0.01,VWS V14.00,2013-02-25 22:54:00,
2013-02-25 17:00:00,38.5,32.2,29.93,ENE,63,3.0,5.0,78,0.00,,---,0.01,VWS V14.00,2013-02-25 23:00:00,
2013-02-25 17:05:00,38.3,32.0,29.93,ENE,63,4.0,5.0,78,0.00,,---,0.01,VWS V14.00,2013-02-25 23:05:00,
2013-02-25 17:10:00,38.3,32.0,29.93,ENE,63,4.0,4.0,78,0.00,,---,0.01,VWS V14.00,2013-02-25 23:10:00,
2013-02-25 17:15:00,37.8,31.9,29.92,ENE,63,2.0,6.0,79,0.00,,---,0.01,VWS V14.00,2013-02-25 23:15:00,
2013-02-25 17:20:00,37.5,31.9,29.92,ENE,63,4.0,5.0,80,0.00,,---,0.01,VWS V14.00,2013-02-25 23:20:00,
2013-02-25 17:25:00,37.5,31.9,29.92,ENE,63,5.0,5.0,80,0.00,,---,0.01,VWS V14.00,2013-02-25 23:25:00,
2013-02-25 17:30:00,37.2,31.9,29.92,ENE,63,7.0,7.0,81,0.00,,---,0.01,VWS V14.00,2013-02-25 23:30:00,
2013-02-25 17:35:00,36.9,31.6,29.92,ENE,63,5.0,5.0,81,0.00,,---,0.01,VWS V14.00,2013-02-25 23:35:00,
2013-02-25 17:40:00,36.8,31.5,29.92,ENE,62,4.0,7.0,81,0.00,,---,0.01,VWS V14.00,2013-02-25 23:40:00,
2013-02-25 17:45:00,36.6,31.3,29.91,ENE,61,5.0,6.0,81,0.00,,---,0.01,VWS V14.00,2013-02-25 23:45:00,
2013-02-25 17:50:00,36.5,31.2,29.91,ENE,61,3.0,6.0,81,0.00,,---,0.01,VWS V14.00,2013-02-25 23:50:00,
2013-02-25 17:55:00,36.2,30.9,29.91,ENE,61,4.0,7.0,81,0.00,,---,0.01,VWS V14.00,2013-02-25 23:55:00,
2013-02-25 18:00:00,36.0,31.0,29.91,ENE,61,4.0,7.0,82,0.00,,---,0.01,VWS V14.00,2013-02-26 00:00:00,
2013-02-25 18:05:00,35.9,31.0,29.91,ENE,61,6.0,7.0,82,0.00,,---,0.01,VWS V14.00,2013-02-26 00:05:00,
2013-02-25 18:11:00,35.8,30.9,29.91,ENE,61,6.0,9.0,82,0.00,,---,0.01,VWS V14.00,2013-02-26 00:11:00,
2013-02-25 18:16:00,35.6,31.0,29.92,ENE,61,6.0,6.0,83,0.00,,---,0.01,VWS V14.00,2013-02-26 00:16:00,
2013-02-25 18:21:00,35.5,30.9,29.92,ENE,61,6.0,8.0,83,0.00,,---,0.01,VWS V14.00,2013-02-26 00:21:00,
2013-02-25 18:26:00,35.3,30.7,29.92,ENE,60,6.0,9.0,83,0.00,,---,0.01,VWS V14.00,2013-02-26 00:26:00,
2013-02-25 18:31:00,35.2,30.6,29.90,ENE,59,7.0,9.0,83,0.00,,---,0.01,VWS V14.00,2013-02-26 00:31:00,
2013-02-25 18:36:00,35.0,30.4,29.90,ENE,59,6.0,9.0,83,0.00,,---,0.01,VWS V14.00,2013-02-26 00:36:00,
2013-02-25 18:41:00,34.9,30.3,29.90,ENE,58,6.0,9.0,83,0.00,,---,0.01,VWS V14.00,2013-02-26 00:41:00,
2013-02-25 18:47:00,34.7,29.8,29.89,ENE,57,6.0,9.0,82,0.00,,---,0.01,VWS V14.00,2013-02-26 00:47:00,
2013-02-25 18:52:00,34.7,29.8,29.89,ENE,57,6.0,9.0,82,0.00,,---,0.01,VWS V14.00,2013-02-26 00:52:00,
2013-02-25 18:57:00,34.6,29.7,29.89,ENE,57,4.0,4.0,82,0.00,,---,0.01,VWS V14.00,2013-02-26 00:57:00,
2013-02-25 19:02:00,34.4,29.5,29.92,ENE,57,2.0,2.0,82,0.00,,---,0.01,VWS V14.00,2013-02-26 01:02:00,
2013-02-25 19:07:00,34.4,29.8,29.92,ENE,57,4.0,5.0,83,0.00,,---,0.01,VWS V14.00,2013-02-26 01:07:00,
2013-02-25 19:12:00,34.3,29.7,29.92,ENE,57,5.0,5.0,83,0.00,,---,0.01,VWS V14.00,2013-02-26 01:12:00,
2013-02-25 19:17:00,34.3,29.7,29.90,ENE,57,5.0,6.0,83,0.00,,---,0.01,VWS V14.00,2013-02-26 01:17:00,
2013-02-25 19:22:00,34.1,29.5,29.90,ENE,57,5.0,7.0,83,0.00,,---,0.01,VWS V14.00,2013-02-26 01:22:00,
2013-02-25 19:27:00,34.1,29.8,29.90,ENE,57,6.0,6.0,84,0.00,,---,0.01,VWS V14.00,2013-02-26 01:27:00,
2013-02-25 19:32:00,34.1,29.8,29.90,ENE,57,5.0,6.0,84,0.00,,---,0.01,VWS V14.00,2013-02-26 01:32:00,
2013-02-25 19:37:00,34.1,29.8,29.90,ENE,57,5.0,9.0,84,0.00,,---,0.01,VWS V14.00,2013-02-26 01:37:00,
2013-02-25 19:43:00,34.1,30.1,29.90,ENE,57,4.0,6.0,85,0.00,,---,0.01,VWS V14.00,2013-02-26 01:43:00,
2013-02-25 19:48:00,34.3,30.3,29.90,ENE,57,5.0,8.0,85,0.00,,---,0.01,VWS V14.00,2013-02-26 01:48:00,
2013-02-25 19:53:00,34.3,30.3,29.90,ENE,57,3.0,8.0,85,0.00,,---,0.01,VWS V14.00,2013-02-26 01:53:00,
2013-02-25 19:58:00,34.3,30.0,29.90,ENE,57,5.0,10.0,84,0.00,,---,0.01,VWS V14.00,2013-02-26 01:58:00,
2013-02-25 20:03:00,34.3,29.7,29.89,ENE,57,6.0,9.0,83,0.00,,---,0.01,VWS V14.00,2013-02-26 02:03:00,
2013-02-25 20:08:00,34.1,29.8,29.89,ENE,57,8.0,10.0,84,0.00,,---,0.01,VWS V14.00,2013-02-26 02:08:00,
2013-02-25 20:13:00,34.1,29.8,29.89,ENE,57,5.0,10.0,84,0.00,,---,0.01,VWS V14.00,2013-02-26 02:13:00,
2013-02-25 20:18:00,34.0,29.7,29.89,ENE,57,6.0,7.0,84,0.00,,---,0.01,VWS V14.00,2013-02-26 02:18:00,
2013-02-25 20:23:00,34.0,29.7,29.89,NE,56,5.0,9.0,84,0.00,,---,0.01,VWS V14.00,2013-02-26 02:23:00,
2013-02-25 20:28:00,34.1,29.8,29.89,NE,56,6.0,9.0,84,0.00,,---,0.01,VWS V14.00,2013-02-26 02:28:00,
2013-02-25 20:33:00,34.1,29.8,29.89,NE,56,7.0,7.0,84,0.00,,---,0.01,VWS V14.00,2013-02-26 02:33:00,
2013-02-25 20:38:00,34.3,29.7,29.89,NE,56,6.0,6.0,83,0.00,,---,0.01,VWS V14.00,2013-02-26 02:38:00,
2013-02-25 20:43:00,34.3,29.7,29.89,NE,56,3.0,6.0,83,0.00,,---,0.01,VWS V14.00,2013-02-26 02:43:00,
2013-02-25 20:48:00,34.3,29.7,29.89,NE,56,3.0,7.0,83,0.00,,---,0.01,VWS V14.00,2013-02-26 02:48:00,
2013-02-25 20:53:00,34.4,29.5,29.89,NE,56,2.0,6.0,82,0.00,,---,0.01,VWS V14.00,2013-02-26 02:53:00,
2013-02-25 20:59:00,34.4,29.5,29.89,NE,56,3.0,12.0,82,0.00,,---,0.01,VWS V14.00,2013-02-26 02:59:00,
2013-02-25 21:04:00,34.4,29.5,29.89,NE,56,3.0,3.0,82,0.00,,---,0.01,VWS V14.00,2013-02-26 03:04:00,
2013-02-25 21:09:00,34.4,29.2,29.89,NE,56,5.0,9.0,81,0.00,,---,0.01,VWS V14.00,2013-02-26 03:09:00,
2013-02-25 21:14:00,34.6,29.4,29.89,NE,56,8.0,11.0,81,0.00,,---,0.01,VWS V14.00,2013-02-26 03:14:00,
2013-02-25 21:19:00,34.7,29.2,29.89,NE,55,10.0,10.0,80,0.00,,---,0.01,VWS V14.00,2013-02-26 03:19:00,
2013-02-25 21:24:00,34.7,29.2,29.89,NE,55,7.0,9.0,80,0.00,,---,0.01,VWS V14.00,2013-02-26 03:24:00,
2013-02-25 21:29:00,34.7,29.2,29.89,NE,53,6.0,10.0,80,0.00,,---,0.01,VWS V14.00,2013-02-26 03:29:00,
2013-02-25 21:34:00,34.7,28.9,29.88,NE,53,6.0,10.0,79,0.00,,---,0.01,VWS V14.00,2013-02-26 03:34:00,
2013-02-25 21:39:00,34.7,28.9,29.88,NE,53,6.0,7.0,79,0.00,,---,0.01,VWS V14.00,2013-02-26 03:39:00,
2013-02-25 21:44:00,34.6,29.1,29.87,NE,52,5.0,10.0,80,0.00,,---,0.01,VWS V14.00,2013-02-26 03:44:00,
2013-02-25 21:49:00,34.6,29.1,29.87,NE,52,7.0,7.0,80,0.00,,---,0.01,VWS V14.00,2013-02-26 03:49:00,
2013-02-25 21:54:00,34.6,29.1,29.87,NE,52,7.0,7.0,80,0.00,,---,0.01,VWS V14.00,2013-02-26 03:54:00,
2013-02-25 21:59:00,34.6,29.1,29.86,NE,52,7.0,7.0,80,0.00,,---,0.01,VWS V14.00,2013-02-26 03:59:00,
2013-02-25 22:05:00,34.6,29.1,29.86,NE,52,7.0,7.0,80,0.00,,---,0.01,VWS V14.00,2013-02-26 04:05:00,
2013-02-25 22:10:00,34.6,29.1,29.86,NE,52,7.0,7.0,80,0.00,,---,0.01,VWS V14.00,2013-02-26 04:10:00,
2013-02-25 22:15:00,34.6,29.1,29.85,NE,52,7.0,7.0,80,0.00,,---,0.01,VWS V14.00,2013-02-26 04:15:00,
2013-02-25 22:20:00,34.6,29.1,29.85,NE,52,7.0,7.0,80,0.00,,---,0.01,VWS V14.00,2013-02-26 04:20:00,
2013-02-25 22:25:00,34.6,29.1,29.85,NE,52,7.0,7.0,80,0.00,,---,0.01,VWS V14.00,2013-02-26 04:25:00,
2013-02-25 22:30:00,34.6,29.1,29.84,NE,52,7.0,7.0,80,0.00,,---,0.01,VWS V14.00,2013-02-26 04:30:00,
2013-02-25 22:35:00,34.6,29.1,29.84,NE,52,7.0,7.0,80,0.00,,---,0.01,VWS V14.00,2013-02-26 04:35:00,
2013-02-25 22:40:00,34.6,29.1,29.84,NE,52,7.0,7.0,80,0.00,,---,0.01,VWS V14.00,2013-02-26 04:40:00,
2013-02-25 22:45:00,34.6,29.1,29.82,NE,52,7.0,7.0,80,0.00,,---,0.01,VWS V14.00,2013-02-26 04:45:00,
2013-02-25 22:50:00,34.6,29.1,29.82,NE,52,7.0,7.0,80,0.00,,---,0.01,VWS V14.00,2013-02-26 04:50:00,
2013-02-25 22:55:00,34.6,29.1,29.82,NE,52,7.0,7.0,80,0.00,,---,0.01,VWS V14.00,2013-02-26 04:55:00,
2013-02-25 23:00:00,34.6,29.1,29.80,NE,52,7.0,7.0,80,0.00,,---,0.01,VWS V14.00,2013-02-26 05:00:00,
2013-02-25 23:01:00,34.6,29.1,29.80,NE,52,7.0,7.0,80,0.00,,---,0.01,VWS V14.00,2013-02-26 05:01:00,
2013-02-25 23:06:00,34.1,28.9,29.80,NE,50,11.0,11.0,81,0.00,,---,0.01,VWS V14.00,2013-02-26 05:06:00,
2013-02-25 23:11:00,34.1,28.9,29.80,NE,51,10.0,10.0,81,0.00,,---,0.01,VWS V14.00,2013-02-26 05:11:00,
2013-02-25 23:16:00,34.1,28.9,29.80,NE,52,9.0,10.0,81,0.00,,---,0.01,VWS V14.00,2013-02-26 05:16:00,
2013-02-25 23:21:00,34.1,28.9,29.80,NE,52,10.0,12.0,81,0.00,,---,0.01,VWS V14.00,2013-02-26 05:21:00,
2013-02-25 23:26:00,34.1,28.9,29.80,NE,52,10.0,10.0,81,0.00,,---,0.01,VWS V14.00,2013-02-26 05:26:00,
2013-02-25 23:31:00,34.1,28.9,29.78,NE,52,7.0,11.0,81,0.00,,---,0.01,VWS V14.00,2013-02-26 05:31:00,
2013-02-25 23:36:00,34.1,28.9,29.78,NE,52,8.0,11.0,81,0.00,,---,0.01,VWS V14.00,2013-02-26 05:36:00,
2013-02-25 23:41:00,34.1,28.9,29.78,NE,52,9.0,11.0,81,0.00,,---,0.01,VWS V14.00,2013-02-26 05:41:00,
2013-02-25 23:47:00,34.1,28.9,29.77,NE,51,9.0,13.0,81,0.00,,---,0.01,VWS V14.00,2013-02-26 05:47:00,
2013-02-25 23:52:00,34.1,28.9,29.77,NE,53,8.0,12.0,81,0.00,,---,0.01,VWS V14.00,2013-02-26 05:52:00,
2013-02-25 23:57:00,34.1,28.9,29.77,NE,52,11.0,12.0,81,0.00,,---,0.01,VWS V14.00,2013-02-26 05:57:00,